Flag for U.S.A. Weather past 2 weeks in Manassas, Virginia, U.S.A.

Now
72 °F

Overcast.


Feels Like: 67 °F
Forecast: 70 / 86 °F
Wind: 3 mph from Southeast

Location: Manassas Municipal

Current Time: Aug 31, 2015 at 3:36:40 AM

Latest Report: Aug 31, 2015 at 2:55 AM


Visibility: 10 mi

Pressure: 30.07 "Hg

Humidity: 94%

Dew point: 70 °F

Location of ManassasLocation

Historic Weather in Manassas — Graph

°F

Manassas temperature yesterday

Maximum temperature yesterday: 86 °F (at 3:55 PM)
Minimum temperature yesterday: 63 °F (at 6:45 AM)
Average temperature yesterday: 72 °F

Past Weeks' High & Low Weather Summary

 TemperatureHumidityPressure
High93 °F (Aug 17, 2:50 PM)100% (Aug 16, 2:35 AM)30.23 "Hg (Aug 16, 2:35 AM)
Low55 °F (Aug 23, 6:30 AM)35% (Aug 21, 3:55 PM)29.82 "Hg (Aug 24, 4:45 PM)
Average71 °F82%30.04 "Hg
* Reported Aug 16 2:15 AM — Aug 31 2:15 AM, Manassas, Weather by CustomWeather, © 2015

Note: Actual official high and low records may vary slightly from our data, if they occured in-between our weather recording intervals... More about our weather records

Advertising

Manassas weather history for previous 24 hours

 ConditionsComfort  
Time TempWeatherWind HumidityBarometerVisibility
2:15 AM
Mon, Aug 31
72 °FPassing clouds.No wind94%30.08 "Hg10 mi
1:55 AM73 °FPassing clouds.No wind83%30.08 "Hg10 mi
1:35 AM73 °FOvercast.No wind83%30.09 "Hg10 mi
1:15 AM73 °FPassing clouds.No wind83%30.10 "Hg10 mi
12:55 AM73 °FPassing clouds.No wind89%30.09 "Hg10 mi
12:35 AM73 °FPassing clouds.No wind94%30.09 "Hg10 mi
12:15 AM73 °FPassing clouds.No wind94%30.09 "Hg10 mi
11:35 PM
Sun, Aug 30
73 °FClear.No wind94%30.09 "Hg10 mi
11:15 PM73 °FClear.No wind89%30.09 "Hg10 mi
10:55 PM73 °FClear.No wind89%30.09 "Hg10 mi
10:35 PM75 °FPassing clouds.No wind83%30.09 "Hg10 mi
9:45 PM75 °FClear.No wind83%30.09 "Hg10 mi
8:50 PM75 °FClear.No wind89%30.08 "Hg10 mi
7:45 PM79 °FSunny.No wind74%30.06 "Hg10 mi
6:45 PM81 °FSunny.6 mph70%30.07 "Hg10 mi
5:50 PM82 °FSunny.6 mph70%30.07 "Hg10 mi
4:50 PM86 °FSunny.6 mph52%30.07 "Hg10 mi
3:55 PM86 °FSunny.No wind52%30.07 "Hg10 mi
2:45 PM84 °FSunny.No wind55%30.10 "Hg10 mi
1:50 PM82 °FSunny.No wind62%30.11 "Hg10 mi
12:45 PM79 °FSunny.No wind74%30.13 "Hg10 mi
11:45 AM77 °FSunny.5 mph74%30.14 "Hg10 mi
10:45 AM73 °FSunny.No wind83%30.15 "Hg10 mi
9:45 AM70 °FSunny.No wind88%30.15 "Hg10 mi
8:45 AM68 °FSunny.No wind94%30.13 "Hg10 mi
7:55 AM66 °FSunny.No wind100%30.13 "Hg10 mi
6:45 AM63 °FClear.No wind100%30.12 "Hg10 mi
6:15 AM64 °FClear.No wind100%30.11 "Hg10 mi
5:55 AM64 °FClear.No wind100%30.11 "Hg10 mi
5:35 AM64 °FClear.No wind94%30.10 "Hg10 mi
5:15 AM64 °FClear.No wind94%30.10 "Hg10 mi
4:55 AM64 °FClear.No wind100%30.10 "Hg10 mi
4:35 AM64 °FClear.No wind100%30.10 "Hg10 mi
4:15 AM64 °FClear.3 mph94%30.10 "Hg10 mi
3:55 AM66 °FClear.No wind94%30.10 "Hg10 mi
3:35 AM66 °FClear.No wind94%30.11 "Hg10 mi
3:15 AM68 °FClear.No wind88%30.10 "Hg10 mi
Weather by CustomWeather, © 2015

See weather overviewHow to use our weather pages